Location: DARK SKY Beskydy - Park tmavé oblohy, www.darkskybeskydy.cz
(49.4926°N, 18.5016°E)
Time: 08:37:08
(UTC+01:00)

Tiros 1 - Visible Passes

Search period start: 02 November 2024 00:00
Search period end: 12 November 2024 00:00
Orbit: 622 x 654 km, 48.4° (Epoch: 01 November)

Date Brightness Start Highest point End Pass type
(mag) Time Alt. Az. Time Alt. Az. Time Alt. Az.
07 Nov 8.9 18:22:53 10° S 18:25:09 18° SSE 18:25:09 18° SSE visible
08 Nov 8.6 18:44:49 10° SSW 18:47:34 27° S 18:47:34 27° S visible
09 Nov 8.9 17:27:32 10° S 17:30:39 18° SE 17:32:24 15° ESE visible
09 Nov 8.6 19:07:21 10° SW 19:09:54 30° SW 19:09:54 30° SW visible
10 Nov 8.2 17:49:14 10° SSW 17:53:20 30° SSE 17:54:39 25° ESE visible
10 Nov 9.2 19:30:12 10° WSW 19:32:08 24° WSW 19:32:08 24° WSW visible
11 Nov 7.6 18:11:40 10° SW 18:16:10 46° SSE 18:16:50 43° SE visible
11 Nov 9.7 19:53:13 10° W 19:54:18 17° W 19:54:18 17° W visible
